Погода в Юнде

Россия / Удмуртская Республика     57°53′02″N   52°53′52″E
темп.,
°C
ветер,
м/с
пор.,
м/с
влажн.,
%
обл.,
%
осадки,
мм/ч
давл.,
гПа
погр.,
м
14 апреля, ср
ср1401:00+4юз249994 0.0 103159
04:00+3зюз2210098 0.0 103142
07:00+4зюз23100100 0.1 103189
10:00+6юз349888 0.1 1030163
13:00+10юз249363 0.0 1029206
16:00+12юз258545 0.0 1028312
19:00+9ююз22915 0.0 102615
22:00+8ююз358927 0.0 102561
15 апреля, чт
чт1501:00+6ююз23916 0.0 102430
04:00+5ююз23939 0.0 102429
07:00+7ююз37959 0.0 1022150
10:00+12юз478214 0.0 1021452
13:00+15зюз467184 0.0 10201019
16:00+14з2481100 0.8 1019114
19:00+10с61090100 2.1 1020441
22:00+6св51088100 3.6 1023604
16 апреля, пт
пт1601:00+4св51181100 3.1 1025749
04:00+3св51172100 3.2 1026692
07:00+3св411737 0.0 1028742
10:00+5всв57530 0.0 1028938
13:00+7св55420 0.0 10281208
16:00+8св44404 0.0 10281277
19:00+6св23587 0.0 102752
22:00+3ссв22645 0.0 102816
17 апреля, сб
сб1701:00+1с23695 0.0 102836
04:000ссз23710 0.0 102858
07:00+2ссз38715 0.0 1029274
10:00+6ссз57555 0.0 10281056
13:00+8ссз574973 0.0 10271624
16:00+9ссз685155 0.0 10271809
19:00+6ссз486319 0.0 1027347
22:00+3ссз39753 0.0 1027264
18 апреля, вс
вс1801:00+2сз39805 0.0 1027216
04:00+1сз411825 0.0 1027391
07:00+2ссз510775 0.0 10281082
10:00+3ссв685141 0.0 10291440
13:00+5ссв683777 0.0 10301949
16:00+5ссв5733100 0.0 10312241
19:00+3св474394 0.0 1033369
22:000всв25595 0.0 1035108